Regional Weather Roundup
Issued by NWS Charleston, SC

Current Version | Previous Version | Text Only | Print | Product List | Glossary Off
Versions: 1 2 3 4 5 6 7 8 9 10 11 12 13 14 15 16 17 18 19 20 21 22 23 24 25 26 27 28 29 30 31 32 33 34 35 36 37 38 39 40 41 42 43 44 45 46 47 48 49 50

792
ASUS42 KCHS 150827
RWRCHS

Regional Weather Roundup
National Weather Service Charleston SC
300 AM EST FRI DEC 15 2017

NOTE: "fair" indicates few or no clouds below 12,000 feet with no
significant weather and/or obstructions to visibility.

Not all stations are quality controlled. Use data with caution,
especially dewpoint observations.

SCZ027-030-031-034>040-042>050-150900-
...Southeast South Carolina...

CITY           SKY/WX    TMP DP  RH WIND       PRES   REMARKS
N Charleston   CLOUDY    49  41  74 W5        30.01R
Waterfront Prk   N/A     52  43  71 CALM      29.86S
Mount Pleasant FAIR      52  43  71 CALM      30.01S
Johns Island   FAIR      52  43  71 CALM      30.01S
Pinopolis        N/A     48  43  81 SW5       29.92R
Moncks Corner  FAIR      43  39  87 CALM      30.00S
Summerville    FAIR      43  41  93 CALM      30.01S
Beaufort MCAS  CLOUDY    49  42  77 SW8       30.01S
Beaufort Arpt  FAIR      50  41  71 SW5       30.00F
Hilton Head Is CLOUDY    50  39  66 CALM      30.02S
Walterboro     CLOUDY    43  41  93 CALM      30.01F
Allendale      FAIR      45  41  87 CALM      29.99S

...Southern Midlands and Pee Dee...

CITY           SKY/WX    TMP DP  RH WIND       PRES   REMARKS
Georgetown     FAIR      45  43  93 W5        30.01S
Kingstree      FAIR      43  37  81 CALM      29.99S
Orangeburg     CLOUDY    45  37  73 CALM      29.99S
Barnwell         N/A     46  39  76 CALM      30.00S
Aiken          FAIR      41  36  81 SW6       30.01F
Manning        FAIR      43  32  65 MISG      29.99F
Columbia       CLOUDY    47  39  74 W6        29.98R
Sumter         MOCLDY    42  37  81 S5        29.96R
Florence       PTCLDY    41  37  86 SW5       29.98R
Myrtle Beach   CLOUDY    47  40  76 SW5       30.00S
N Myrtle Beach CLOUDY    47  42  83 W5        29.98S

$$

GAZ063-065-086>088-099>101-113>116-118-119-134>141-150-150900-
...Southeast Georgia...

CITY           SKY/WX    TMP DP  RH WIND       PRES   REMARKS
Savannah Arpt  PTCLDY    48  39  71 CALM      30.02S
Hunter AAF     MOCLDY    48  39  71 SW7       29.99
Fort Stewart   MOCLDY    45  40  84 CALM      30.00S
Statesboro     PTCLDY    43  40  91 CALM      30.01S
Sylvania       CLOUDY    45  43  93 CALM      30.01F
Claxton        FAIR      44  42  94 CALM      30.02S

...CSRA, Central and far Southeast Georgia...

CITY           SKY/WX    TMP DP  RH WIND       PRES   REMARKS
Thomson        CLOUDY    42  37  83 CALM      30.03F
Augusta-Bush   CLOUDY    42  39  89 E3        30.00S
Augusta-Daniel CLOUDY    48  37  65 CALM      29.99F
Swainsboro     FAIR      43  43 100 CALM      30.01S
Vidalia        MOCLDY    45  41  87 CALM      30.01S
Eastman        FAIR      42  35  75 CALM      30.04S
Hazlehurst     FAIR      48  37  65 CALM      30.01R
Alma           CLOUDY    45  42  89 CALM      30.01S
Waycross       CLOUDY    46  42  84 CALM      30.03S
Jesup          NOT AVBL
Baxley         FAIR      43  43 100 CALM      30.02R
Brunswick      CLOUDY    46  41  81 CALM      30.03S
Saint Simons   PTCLDY    51  45  79 SW5       30.02F

$$

SCZ027-028-034-036>038-045-046-048>050-GAZ119-141-150900-
...Lake and Supplemental Coastal Observations...

STATION/POSITION TIME  TEMP    WIND        PRES    WAVE   SWELL
                       AIR SEA DIR/SP/G            HT/PER HT/PER/DIR
                 (UTC) (F)     (DEG/KT/KT) (MB)    (FT/S) (FT/S/D)
Winyah Bay       0745   47     280/  1     1016.0S
Lake Murray      0730   51     270/  8/ 10 1014.2R
ACE Basin NERRS  0745   50        CALM     1016.0S
Fort Pulaski     0800   52 53  260/  3/  3 1016.6
Sapelo Island    0800   50        CALM     1017.0

$$

ANZ835-935-AMZ111-154-330-350-352-354-370-450-454-472-150900-
...C-MAN and Buoy Observations...

STATION/POSITION TIME  TEMP    WIND        PRES    WAVE   SWELL
                       AIR SEA DIR/SP/G            HT/PER HT/PER/DIR
                 (UTC) (F)     (DEG/KT/KT) (MB)    (FT/S) (FT/S/D)
Buoy 41004       0810   63 73  270/ 14/ 17 1015.7
Buoy 41008       0750   58 59  270/  6/  8 1016.6S   1/ 4
Folly Beach CMAN 0800   51     250/  3/  4 1016.6R
Capers Nearshore 0708   51 55  260/  8/ 12 1015.7R


STATION/POSITION TIME  TEMP    WIND        PRES    WAVE   SWELL
                       AIR SEA DIR/SP/G            HT/PER HT/PER/DIR
                 (UTC) (F)     (DEG/KT/KT) (MB)    (FT/S) (FT/S/D)
5E St. Marys GA  0800      62                N/A     1/10
Frying Pan Buoy  0810   60 67  270/ 14/ 17 1015.1
Buoy 41025       0810   59 74   80/  6/ 12 1015.5
Cape Lookout NC  0800           20/  8/  9 1015.7F
Buoy 41002       0750   71 74  250/ 17/ 19 1015.5F   7/ 8   3/250/ 8
Buoy 41010       NOT AVBL
St Augustine FL  0800   58 63  240/  5/  6 1017.3F


$$




USA.gov is the U.S. government's official web portal to all federal, state and local government web resources and services.